Time,TemperatureF,DewpointF,PressureIn,WindDirection,WindDirectionDegrees,WindSpeedMPH,WindSpeedGustMPH,Humidity,HourlyPrecipIn,Conditions,Clouds,dailyrainin,SoftwareType,DateUTC
2013-05-03 00:04:00,48.6,42.6,29.96,SSW,202,13.0,17.0,80,0.00,,,0.00,meteohub,2013-05-02 23:04:00,
2013-05-03 00:09:00,48.7,42.6,29.96,SSW,202,11.0,17.0,79,0.00,,,0.00,meteohub,2013-05-02 23:09:00,
2013-05-03 00:14:00,48.7,42.3,29.96,SSW,202,10.0,20.0,78,0.00,,,0.00,meteohub,2013-05-02 23:14:00,
2013-05-03 00:19:00,48.7,42.3,29.96,SSW,202,7.0,20.0,78,0.00,,,0.00,meteohub,2013-05-02 23:19:00,
2013-05-03 00:24:00,48.7,42.3,29.96,SSW,202,13.0,20.0,78,0.00,,,0.00,meteohub,2013-05-02 23:24:00,
2013-05-03 00:29:00,48.6,42.1,29.96,SSW,202,15.0,17.0,78,0.00,,,0.00,meteohub,2013-05-02 23:29:00,
2013-05-03 00:34:00,48.6,42.1,29.99,WSW,248,11.0,17.0,78,0.00,,,0.00,meteohub,2013-05-02 23:34:00,
2013-05-03 00:39:00,48.7,42.6,29.99,SW,225,15.0,17.0,79,0.00,,,0.00,meteohub,2013-05-02 23:39:00,
2013-05-03 00:44:00,48.7,42.6,29.99,SSW,202,15.0,15.0,79,0.00,,,0.00,meteohub,2013-05-02 23:44:00,
2013-05-03 00:49:00,48.7,42.6,29.96,SW,225,5.0,17.0,79,0.00,,,0.00,meteohub,2013-05-02 23:49:00,
2013-05-03 00:54:00,48.6,42.4,29.96,South,180,6.0,17.0,79,0.00,,,0.00,meteohub,2013-05-02 23:54:00,
2013-05-03 00:59:00,48.6,42.1,29.96,SW,225,8.0,17.0,78,0.00,,,0.00,meteohub,2013-05-02 23:59:00,
2013-05-03 01:04:00,48.6,42.4,29.96,SSW,202,11.0,15.0,79,0.00,,,0.00,meteohub,2013-05-03 00:04:00,
2013-05-03 01:09:00,48.6,42.4,29.96,SSW,202,8.0,15.0,79,0.00,,,0.00,meteohub,2013-05-03 00:09:00,
2013-05-03 01:14:00,48.6,42.4,29.96,SW,225,10.0,15.0,79,0.00,,,0.00,meteohub,2013-05-03 00:14:00,
2013-05-03 01:19:00,48.6,42.4,29.96,SSW,202,6.0,15.0,79,0.00,,,0.00,meteohub,2013-05-03 00:19:00,
2013-05-03 01:25:00,48.4,42.3,29.96,SW,225,13.0,13.0,79,0.00,,,0.00,meteohub,2013-05-03 00:25:00,
2013-05-03 01:30:00,48.4,42.3,29.96,SSW,202,6.0,13.0,79,0.00,,,0.00,meteohub,2013-05-03 00:30:00,
2013-05-03 01:35:00,48.2,42.1,29.96,SSW,202,4.0,13.0,79,0.00,,,0.00,meteohub,2013-05-03 00:35:00,
2013-05-03 01:40:00,48.2,42.1,29.96,WSW,248,12.0,15.0,79,0.00,,,0.00,meteohub,2013-05-03 00:40:00,
2013-05-03 01:45:00,48.2,42.1,29.96,WSW,248,6.0,15.0,79,0.00,,,0.00,meteohub,2013-05-03 00:45:00,
2013-05-03 01:50:00,48.2,42.1,29.96,SSW,202,6.0,15.0,79,0.00,,,0.00,meteohub,2013-05-03 00:50:00,
2013-05-03 01:55:00,48.2,42.1,29.96,WSW,248,10.0,11.0,79,0.00,,,0.00,meteohub,2013-05-03 00:55:00,
2013-05-03 02:00:00,48.2,42.1,29.96,SW,225,10.0,13.0,79,0.00,,,0.00,meteohub,2013-05-03 01:00:00,
2013-05-03 02:05:00,48.2,41.7,29.93,West,270,5.0,13.0,78,0.00,,,0.00,meteohub,2013-05-03 01:05:00,
2013-05-03 02:10:00,48.2,41.7,29.93,WSW,248,9.0,13.0,78,0.00,,,0.00,meteohub,2013-05-03 01:10:00,
2013-05-03 02:15:00,48.2,41.7,29.93,WSW,248,10.0,13.0,78,0.00,,,0.00,meteohub,2013-05-03 01:15:00,
2013-05-03 02:20:00,48.4,41.5,29.93,WSW,248,6.0,13.0,77,0.00,,,0.00,meteohub,2013-05-03 01:20:00,
2013-05-03 02:25:00,48.4,41.5,29.93,WSW,248,10.0,13.0,77,0.00,,,0.00,meteohub,2013-05-03 01:25:00,
2013-05-03 02:30:00,48.4,41.5,29.93,SW,225,8.0,13.0,77,0.00,,,0.00,meteohub,2013-05-03 01:30:00,
2013-05-03 02:35:00,48.4,41.5,29.93,WSW,248,13.0,13.0,77,0.00,,,0.00,meteohub,2013-05-03 01:35:00,
2013-05-03 02:40:00,48.4,41.2,29.93,WSW,248,8.0,13.0,76,0.00,,,0.00,meteohub,2013-05-03 01:40:00,
2013-05-03 02:45:00,48.6,41.4,29.93,WSW,248,14.0,16.0,76,0.00,,,0.00,meteohub,2013-05-03 01:45:00,
2013-05-03 02:50:00,48.4,41.2,29.93,WSW,248,4.0,16.0,76,0.00,,,0.00,meteohub,2013-05-03 01:50:00,
2013-05-03 02:55:00,48.4,41.2,29.93,West,270,4.0,16.0,76,0.00,,,0.00,meteohub,2013-05-03 01:55:00,
2013-05-03 03:01:00,48.4,41.2,29.93,SW,225,10.0,14.0,76,0.00,,,0.00,meteohub,2013-05-03 02:01:00,
2013-05-03 03:06:00,48.6,41.7,29.93,SSW,202,10.0,13.0,77,0.00,,,0.00,meteohub,2013-05-03 02:06:00,
2013-05-03 03:11:00,48.6,41.4,29.93,WSW,248,15.0,15.0,76,0.00,,,0.00,meteohub,2013-05-03 02:11:00,
2013-05-03 03:16:00,48.6,41.4,29.93,SW,225,7.0,15.0,76,0.00,,,0.00,meteohub,2013-05-03 02:16:00,
2013-05-03 03:21:00,48.6,41.4,29.90,SW,225,12.0,15.0,76,0.00,,,0.00,meteohub,2013-05-03 02:21:00,
2013-05-03 03:26:00,48.7,41.2,29.90,SW,225,10.0,15.0,75,0.00,,,0.00,meteohub,2013-05-03 02:26:00,
2013-05-03 03:31:00,48.7,41.2,29.90,SW,225,7.0,17.0,75,0.00,,,0.00,meteohub,2013-05-03 02:31:00,
2013-05-03 03:36:00,48.7,41.2,29.90,WSW,248,10.0,17.0,75,0.00,,,0.00,meteohub,2013-05-03 02:36:00,
2013-05-03 03:41:00,48.7,41.2,29.90,SW,225,10.0,17.0,75,0.00,,,0.00,meteohub,2013-05-03 02:41:00,
2013-05-03 03:46:00,48.7,41.2,29.90,SW,225,13.0,17.0,75,0.00,,,0.00,meteohub,2013-05-03 02:46:00,
2013-05-03 03:51:00,48.7,41.2,29.90,SSW,202,13.0,17.0,75,0.00,,,0.00,meteohub,2013-05-03 02:51:00,
2013-05-03 03:56:00,48.7,41.2,29.90,SW,225,10.0,17.0,75,0.00,,,0.00,meteohub,2013-05-03 02:56:00,
2013-05-03 04:01:00,48.7,41.2,29.90,SSW,202,13.0,17.0,75,0.00,,,0.00,meteohub,2013-05-03 03:01:00,
2013-05-03 04:06:00,48.7,41.2,29.93,SW,225,15.0,17.0,75,0.00,,,0.00,meteohub,2013-05-03 03:06:00,
2013-05-03 04:11:00,48.7,41.2,29.93,SW,225,15.0,18.0,75,0.00,,,0.00,meteohub,2013-05-03 03:11:00,
2013-05-03 04:16:00,48.9,41.4,29.93,SSW,202,13.0,22.0,75,0.00,,,0.00,meteohub,2013-05-03 03:16:00,
2013-05-03 04:21:00,48.9,41.4,29.90,SW,225,17.0,22.0,75,0.00,,,0.00,meteohub,2013-05-03 03:21:00,
2013-05-03 04:27:00,48.9,41.4,29.90,SW,225,19.0,22.0,75,0.00,,,0.00,meteohub,2013-05-03 03:27:00,
2013-05-03 04:32:00,49.1,41.2,29.90,SW,225,11.0,22.0,74,0.00,,,0.00,meteohub,2013-05-03 03:32:00,
2013-05-03 04:37:00,49.1,41.2,29.90,SW,225,15.0,22.0,74,0.00,,,0.00,meteohub,2013-05-03 03:37:00,
2013-05-03 04:42:00,49.1,41.2,29.90,SSW,202,11.0,22.0,74,0.00,,,0.00,meteohub,2013-05-03 03:42:00,
2013-05-03 04:47:00,49.1,41.2,29.90,SSW,202,16.0,21.0,74,0.00,,,0.00,meteohub,2013-05-03 03:47:00,
2013-05-03 04:52:00,49.3,41.4,29.90,SSW,202,10.0,21.0,74,0.00,,,0.00,meteohub,2013-05-03 03:52:00,
2013-05-03 04:57:00,49.3,41.4,29.90,SW,225,13.0,21.0,74,0.00,,,0.00,meteohub,2013-05-03 03:57:00,
2013-05-03 05:01:00,49.3,41.4,29.90,SSW,202,13.0,19.0,74,0.00,,,0.00,meteohub,2013-05-03 04:01:00,
2013-05-03 05:02:00,49.3,41.4,29.90,SSW,202,13.0,19.0,74,0.00,,,0.00,meteohub,2013-05-03 04:02:00,
2013-05-03 05:03:00,49.3,41.4,29.90,SW,225,13.0,19.0,74,0.00,,,0.00,meteohub,2013-05-03 04:03:00,
2013-05-03 05:08:00,49.3,41.4,29.90,SSW,202,18.0,18.0,74,0.00,,,0.00,meteohub,2013-05-03 04:08:00,
2013-05-03 05:09:00,49.3,41.4,29.90,SW,225,13.0,18.0,74,0.00,,,0.00,meteohub,2013-05-03 04:09:00,
2013-05-03 05:14:00,49.3,41.0,29.90,WSW,248,6.0,18.0,73,0.00,,,0.00,meteohub,2013-05-03 04:14:00,
2013-05-03 05:19:00,49.5,41.2,29.90,SW,225,12.0,18.0,73,0.00,,,0.00,meteohub,2013-05-03 04:19:00,
2013-05-03 05:24:00,49.5,41.2,29.90,SSW,202,13.0,19.0,73,0.00,,,0.00,meteohub,2013-05-03 04:24:00,
2013-05-03 05:29:00,49.5,41.2,29.90,SW,225,10.0,19.0,73,0.00,,,0.00,meteohub,2013-05-03 04:29:00,
2013-05-03 05:34:00,49.6,41.0,29.87,SSW,202,11.0,19.0,72,0.00,,,0.00,meteohub,2013-05-03 04:34:00,
2013-05-03 05:39:00,49.5,40.8,29.87,SW,225,7.0,18.0,72,0.00,,,0.00,meteohub,2013-05-03 04:39:00,
2013-05-03 05:44:00,49.5,40.8,29.87,SSW,202,16.0,18.0,72,0.00,,,0.00,meteohub,2013-05-03 04:44:00,
2013-05-03 05:49:00,49.5,40.8,29.90,SW,225,11.0,18.0,72,0.00,,,0.00,meteohub,2013-05-03 04:49:00,
2013-05-03 05:55:00,49.6,41.0,29.90,SW,225,9.0,18.0,72,0.00,,,0.00,meteohub,2013-05-03 04:55:00,
2013-05-03 06:00:00,49.5,40.8,29.90,SW,225,11.0,18.0,72,0.00,,,0.00,meteohub,2013-05-03 05:00:00,
2013-05-03 06:05:00,49.5,41.2,29.87,SW,225,10.0,18.0,73,0.00,,,0.00,meteohub,2013-05-03 05:05:00,
2013-05-03 06:10:00,49.5,41.2,29.87,WSW,248,11.0,20.0,73,0.00,,,0.00,meteohub,2013-05-03 05:10:00,
2013-05-03 06:15:00,49.5,41.2,29.87,SSW,202,11.0,20.0,73,0.00,,,0.00,meteohub,2013-05-03 05:15:00,
2013-05-03 06:20:00,49.5,41.5,29.87,SSW,202,12.0,20.0,74,0.00,,,0.00,meteohub,2013-05-03 05:20:00,
2013-05-03 06:25:00,49.5,41.9,29.87,SSW,202,13.0,17.0,75,0.00,,,0.00,meteohub,2013-05-03 05:25:00,
2013-05-03 06:30:00,49.3,41.7,29.87,SSW,202,13.0,17.0,75,0.00,,,0.00,meteohub,2013-05-03 05:30:00,
2013-05-03 06:35:00,49.3,41.7,29.90,SSW,202,10.0,17.0,75,0.00,,,0.00,meteohub,2013-05-03 05:35:00,
2013-05-03 06:40:00,49.3,42.1,29.90,SSW,202,8.0,15.0,76,0.00,,,0.00,meteohub,2013-05-03 05:40:00,
2013-05-03 06:45:00,49.1,41.9,29.90,SW,225,13.0,13.0,76,0.00,,,0.00,meteohub,2013-05-03 05:45:00,
2013-05-03 06:50:00,49.1,42.3,29.90,SW,225,9.0,18.0,77,0.00,,,0.00,meteohub,2013-05-03 05:50:00,
2013-05-03 06:55:00,49.1,42.3,29.90,SSW,202,9.0,18.0,77,0.00,,,0.00,meteohub,2013-05-03 05:55:00,
2013-05-03 07:00:00,49.1,42.3,29.90,WSW,248,11.0,18.0,77,0.00,,,0.00,meteohub,2013-05-03 06:00:00,
2013-05-03 07:05:00,49.3,42.4,29.90,WSW,248,15.0,17.0,77,0.00,,,0.00,meteohub,2013-05-03 06:05:00,
2013-05-03 07:10:00,49.3,42.4,29.90,West,270,9.0,17.0,77,0.00,,,0.00,meteohub,2013-05-03 06:10:00,
2013-05-03 07:15:00,49.3,42.4,29.90,SW,225,8.0,17.0,77,0.00,,,0.00,meteohub,2013-05-03 06:15:00,
2013-05-03 07:20:00,49.3,42.4,29.90,SW,225,13.0,17.0,77,0.00,,,0.00,meteohub,2013-05-03 06:20:00,
2013-05-03 07:25:00,49.5,42.6,29.90,West,270,10.0,14.0,77,0.00,,,0.00,meteohub,2013-05-03 06:25:00,
2013-05-03 07:31:00,49.5,42.6,29.90,SW,225,9.0,13.0,77,0.00,,,0.00,meteohub,2013-05-03 06:31:00,
2013-05-03 07:36:00,49.6,42.8,29.90,SSW,202,13.0,13.0,77,0.00,,,0.00,meteohub,2013-05-03 06:36:00,
2013-05-03 07:41:00,49.6,42.8,29.90,SSW,202,12.0,15.0,77,0.00,,,0.00,meteohub,2013-05-03 06:41:00,
2013-05-03 07:46:00,49.8,43.0,29.90,WSW,248,8.0,15.0,77,0.00,,,0.00,meteohub,2013-05-03 06:46:00,
2013-05-03 07:51:00,50.0,43.2,29.90,SSW,202,9.0,15.0,77,0.00,,,0.00,meteohub,2013-05-03 06:51:00,
2013-05-03 07:56:00,50.2,43.3,29.90,SSW,202,13.0,13.0,77,0.00,,,0.00,meteohub,2013-05-03 06:56:00,
2013-05-03 08:01:00,50.2,43.0,29.90,SSW,202,9.0,14.0,76,0.00,,,0.00,meteohub,2013-05-03 07:01:00,
2013-05-03 08:06:00,50.2,43.0,29.90,SW,225,7.0,14.0,76,0.00,,,0.00,meteohub,2013-05-03 07:06:00,
2013-05-03 08:11:00,50.2,43.0,29.90,SSW,202,7.0,14.0,76,0.00,,,0.00,meteohub,2013-05-03 07:11:00,
2013-05-03 08:16:00,50.2,43.3,29.90,SW,225,9.0,13.0,77,0.00,,,0.00,meteohub,2013-05-03 07:16:00,
2013-05-03 08:21:00,50.2,43.3,29.90,SSW,202,12.0,15.0,77,0.00,,,0.00,meteohub,2013-05-03 07:21:00,
2013-05-03 08:26:00,50.0,43.3,29.90,SW,225,11.0,15.0,78,0.00,,,0.00,meteohub,2013-05-03 07:26:00,
2013-05-03 08:31:00,50.0,44.1,29.90,SSW,202,12.0,15.0,80,0.00,,,0.00,meteohub,2013-05-03 07:31:00,
2013-05-03 08:36:00,50.0,44.4,29.90,SSW,202,11.0,15.0,81,0.00,,,0.00,meteohub,2013-05-03 07:36:00,
2013-05-03 08:41:00,49.8,45.0,29.90,SSW,202,9.0,14.0,83,0.00,,,0.00,meteohub,2013-05-03 07:41:00,
2013-05-03 08:46:00,49.6,45.0,29.90,SW,225,6.0,15.0,84,0.00,,,0.00,meteohub,2013-05-03 07:46:00,
2013-05-03 08:51:00,49.8,45.5,29.90,SW,225,6.0,15.0,85,0.00,,,0.00,meteohub,2013-05-03 07:51:00,
2013-05-03 08:56:00,49.6,45.7,29.90,SSW,202,10.0,15.0,86,0.00,,,0.00,meteohub,2013-05-03 07:56:00,
2013-05-03 09:02:00,49.8,45.9,29.90,SSW,202,6.0,13.0,86,0.00,,,0.00,meteohub,2013-05-03 08:02:00,
2013-05-03 09:07:00,49.8,46.0,29.90,SW,225,11.0,13.0,87,0.00,,,0.00,meteohub,2013-05-03 08:07:00,
2013-05-03 09:12:00,49.8,46.0,29.90,SW,225,11.0,13.0,87,0.00,,,0.00,meteohub,2013-05-03 08:12:00,
2013-05-03 09:17:00,50.0,46.2,29.90,SSW,202,9.0,13.0,87,0.00,,,0.00,meteohub,2013-05-03 08:17:00,
2013-05-03 09:22:00,49.8,46.0,29.90,SSW,202,12.0,13.0,87,0.00,,,0.00,meteohub,2013-05-03 08:22:00,
2013-05-03 09:27:00,49.8,45.5,29.90,SSW,202,12.0,15.0,85,0.00,,,0.00,meteohub,2013-05-03 08:27:00,
2013-05-03 09:32:00,49.8,45.1,29.90,SSW,202,11.0,15.0,84,0.00,,,0.00,meteohub,2013-05-03 08:32:00,
2013-05-03 09:37:00,50.0,45.1,29.87,SSW,202,15.0,17.0,83,0.00,,,0.00,meteohub,2013-05-03 08:37:00,
2013-05-03 09:42:00,50.2,45.1,29.87,WSW,248,13.0,17.0,83,0.00,,,0.00,meteohub,2013-05-03 08:42:00,
2013-05-03 09:47:00,50.4,45.1,29.87,WSW,248,10.0,17.0,82,0.00,,,0.00,meteohub,2013-05-03 08:47:00,
2013-05-03 09:52:00,50.9,45.0,29.87,SW,225,10.0,18.0,80,0.00,,,0.00,meteohub,2013-05-03 08:52:00,
2013-05-03 09:57:00,51.1,44.8,29.87,SW,225,13.0,18.0,79,0.00,,,0.00,meteohub,2013-05-03 08:57:00,
2013-05-03 10:02:00,50.9,43.3,29.87,SW,225,13.0,20.0,75,0.00,,,0.00,meteohub,2013-05-03 09:02:00,
2013-05-03 10:07:00,50.9,43.3,29.90,WSW,248,9.0,20.0,75,0.00,,,0.00,meteohub,2013-05-03 09:07:00,
2013-05-03 10:12:00,50.9,43.0,29.90,SSW,202,10.0,20.0,74,0.00,,,0.00,meteohub,2013-05-03 09:12:00,
2013-05-03 10:17:00,50.7,42.8,29.90,WSW,248,13.0,17.0,74,0.00,,,0.00,meteohub,2013-05-03 09:17:00,
2013-05-03 10:22:00,50.9,43.0,29.87,WSW,248,9.0,17.0,74,0.00,,,0.00,meteohub,2013-05-03 09:22:00,
2013-05-03 10:27:00,51.1,43.5,29.87,SW,225,11.0,15.0,75,0.00,,,0.00,meteohub,2013-05-03 09:27:00,
2013-05-03 10:33:00,51.1,43.2,29.87,SSW,202,14.0,16.0,74,0.00,,,0.00,meteohub,2013-05-03 09:33:00,
2013-05-03 10:38:00,51.1,43.2,29.87,WSW,248,13.0,16.0,74,0.00,,,0.00,meteohub,2013-05-03 09:38:00,
2013-05-03 10:43:00,51.3,43.3,29.87,WSW,248,15.0,16.0,74,0.00,,,0.00,meteohub,2013-05-03 09:43:00,
2013-05-03 10:48:00,51.3,43.3,29.87,WSW,248,12.0,16.0,74,0.00,,,0.00,meteohub,2013-05-03 09:48:00,
2013-05-03 10:53:00,51.3,43.3,29.87,SSW,202,6.0,16.0,74,0.00,,,0.00,meteohub,2013-05-03 09:53:00,
2013-05-03 10:58:00,51.3,43.7,29.87,WSW,248,6.0,16.0,75,0.00,,,0.00,meteohub,2013-05-03 09:58:00,
2013-05-03 11:03:00,51.1,43.9,29.87,SW,225,10.0,13.0,76,0.00,,,0.00,meteohub,2013-05-03 10:03:00,
2013-05-03 11:08:00,51.1,43.9,29.87,SSW,202,9.0,13.0,76,0.00,,,0.00,meteohub,2013-05-03 10:08:00,
2013-05-03 11:13:00,51.1,43.9,29.87,SSW,202,11.0,11.0,76,0.00,,,0.00,meteohub,2013-05-03 10:13:00,
2013-05-03 11:18:00,51.1,43.9,29.90,SSW,202,8.0,12.0,76,0.00,,,0.00,meteohub,2013-05-03 10:18:00,
2013-05-03 11:23:00,51.1,43.9,29.90,SSW,202,13.0,13.0,76,0.00,,,0.00,meteohub,2013-05-03 10:23:00,
2013-05-03 11:28:00,50.9,43.9,29.90,SSW,202,11.0,16.0,77,0.00,,,0.00,meteohub,2013-05-03 10:28:00,
2013-05-03 11:33:00,50.5,44.6,29.87,SSW,202,9.0,16.0,80,0.00,,,0.00,meteohub,2013-05-03 10:33:00,
2013-05-03 11:38:00,50.2,45.1,29.87,SSW,202,6.0,16.0,83,0.00,,,0.00,meteohub,2013-05-03 10:38:00,
2013-05-03 11:43:00,49.8,45.5,29.87,SSW,202,6.0,15.0,85,0.00,,,0.00,meteohub,2013-05-03 10:43:00,
2013-05-03 11:48:00,49.8,45.9,29.87,WSW,248,9.0,11.0,86,0.01,,,0.01,meteohub,2013-05-03 10:48:00,
2013-05-03 11:53:00,49.6,45.9,29.87,SW,225,5.0,11.0,87,0.01,,,0.01,meteohub,2013-05-03 10:53:00,
2013-05-03 11:58:00,49.6,46.6,29.87,SW,225,8.0,10.0,89,0.01,,,0.01,meteohub,2013-05-03 10:58:00,
2013-05-03 12:04:00,49.5,46.6,29.87,SW,225,4.0,9.0,90,0.01,,,0.01,meteohub,2013-05-03 11:04:00,
2013-05-03 12:09:00,49.5,46.9,29.87,WSW,248,3.0,9.0,91,0.01,,,0.01,meteohub,2013-05-03 11:09:00,
2013-05-03 12:14:00,49.8,47.3,29.87,SSW,202,4.0,8.0,91,0.01,,,0.01,meteohub,2013-05-03 11:14:00,
2013-05-03 12:19:00,50.2,48.0,29.87,WSW,248,4.0,6.0,92,0.01,,,0.01,meteohub,2013-05-03 11:19:00,
2013-05-03 12:24:00,50.2,48.2,29.87,South,180,2.0,6.0,93,0.02,,,0.02,meteohub,2013-05-03 11:24:00,
2013-05-03 12:29:00,50.5,48.6,29.87,South,180,6.0,6.0,93,0.02,,,0.02,meteohub,2013-05-03 11:29:00,
2013-05-03 12:34:00,50.9,49.3,29.87,SSW,202,8.0,8.0,94,0.02,,,0.02,meteohub,2013-05-03 11:34:00,
2013-05-03 12:39:00,50.7,49.3,29.87,South,180,9.0,10.0,95,0.02,,,0.02,meteohub,2013-05-03 11:39:00,
2013-05-03 12:44:00,50.9,49.5,29.87,SSW,202,8.0,10.0,95,0.01,,,0.02,meteohub,2013-05-03 11:44:00,
2013-05-03 12:49:00,51.3,49.6,29.87,SSW,202,7.0,10.0,94,0.01,,,0.02,meteohub,2013-05-03 11:49:00,
2013-05-03 12:54:00,51.4,49.8,29.87,SSW,202,6.0,11.0,94,0.01,,,0.02,meteohub,2013-05-03 11:54:00,
2013-05-03 12:59:00,51.6,49.6,29.87,SSW,202,8.0,11.0,93,0.01,,,0.02,meteohub,2013-05-03 11:59:00,
2013-05-03 13:04:00,51.6,49.1,29.84,SSW,202,11.0,11.0,91,0.01,,,0.02,meteohub,2013-05-03 12:04:00,
2013-05-03 13:09:00,51.6,48.2,29.84,SSW,202,13.0,16.0,88,0.01,,,0.02,meteohub,2013-05-03 12:09:00,
2013-05-03 13:14:00,51.8,47.8,29.84,SSW,202,8.0,16.0,86,0.01,,,0.02,meteohub,2013-05-03 12:14:00,
2013-05-03 13:19:00,51.6,47.3,29.84,WSW,248,11.0,16.0,85,0.01,,,0.02,meteohub,2013-05-03 12:19:00,
2013-05-03 13:24:00,51.6,47.3,29.84,SSW,202,6.0,15.0,85,0.01,,,0.03,meteohub,2013-05-03 12:24:00,
2013-05-03 13:29:00,51.6,47.3,29.84,SSW,202,11.0,15.0,85,0.01,,,0.03,meteohub,2013-05-03 12:29:00,
2013-05-03 13:34:00,51.4,47.1,29.84,SSW,202,12.0,15.0,85,0.01,,,0.03,meteohub,2013-05-03 12:34:00,
2013-05-03 13:40:00,51.4,47.5,29.84,SSW,202,10.0,15.0,86,0.02,,,0.04,meteohub,2013-05-03 12:40:00,
2013-05-03 13:45:00,51.6,47.7,29.84,SSW,202,6.0,15.0,86,0.02,,,0.04,meteohub,2013-05-03 12:45:00,
2013-05-03 13:50:00,51.6,48.2,29.84,SSW,202,9.0,13.0,88,0.02,,,0.04,meteohub,2013-05-03 12:50:00,
2013-05-03 13:55:00,51.6,47.8,29.84,SSW,202,11.0,18.0,87,0.02,,,0.04,meteohub,2013-05-03 12:55:00,
2013-05-03 14:00:00,52.0,47.7,29.84,SSW,202,6.0,18.0,85,0.02,,,0.04,meteohub,2013-05-03 13:00:00,
2013-05-03 14:05:00,52.0,47.3,29.84,SSW,202,13.0,18.0,84,0.02,,,0.04,meteohub,2013-05-03 13:05:00,
2013-05-03 14:10:00,52.3,47.3,29.84,SSW,202,13.0,17.0,83,0.02,,,0.04,meteohub,2013-05-03 13:10:00,
2013-05-03 14:15:00,52.3,46.9,29.84,SSW,202,13.0,17.0,82,0.01,,,0.04,meteohub,2013-05-03 13:15:00,
2013-05-03 14:20:00,52.2,46.8,29.81,South,180,15.0,15.0,82,0.02,,,0.05,meteohub,2013-05-03 13:20:00,
2013-05-03 14:25:00,52.0,46.9,29.81,South,180,11.0,15.0,83,0.02,,,0.05,meteohub,2013-05-03 13:25:00,
2013-05-03 14:30:00,51.6,46.9,29.81,SSW,202,10.0,15.0,84,0.02,,,0.05,meteohub,2013-05-03 13:30:00,
2013-05-03 14:35:00,51.6,46.9,29.84,SSW,202,9.0,15.0,84,0.01,,,0.05,meteohub,2013-05-03 13:35:00,
2013-05-03 14:40:00,51.6,47.3,29.84,South,180,10.0,15.0,85,0.01,,,0.05,meteohub,2013-05-03 13:40:00,
2013-05-03 14:45:00,51.4,47.5,29.84,SSW,202,11.0,17.0,86,0.01,,,0.05,meteohub,2013-05-03 13:45:00,
2013-05-03 14:50:00,51.6,47.7,29.81,SSW,202,11.0,17.0,86,0.01,,,0.05,meteohub,2013-05-03 13:50:00,
2013-05-03 14:55:00,51.4,47.5,29.81,SSW,202,13.0,20.0,86,0.02,,,0.06,meteohub,2013-05-03 13:55:00,
2013-05-03 15:00:00,51.3,46.9,29.81,SSW,202,9.0,20.0,85,0.02,,,0.06,meteohub,2013-05-03 14:00:00,
2013-05-03 15:05:00,51.3,47.3,29.81,SSW,202,8.0,20.0,86,0.02,,,0.06,meteohub,2013-05-03 14:05:00,
2013-05-03 15:11:00,51.3,47.3,29.81,South,180,9.0,17.0,86,0.03,,,0.07,meteohub,2013-05-03 14:11:00,
2013-05-03 15:16:00,50.9,47.1,29.81,South,180,27.0,27.0,87,0.03,,,0.07,meteohub,2013-05-03 14:16:00,
2013-05-03 15:21:00,50.5,46.6,29.81,SSW,202,15.0,27.0,86,0.02,,,0.07,meteohub,2013-05-03 14:21:00,
2013-05-03 15:26:00,50.5,46.6,29.81,SSW,202,15.0,27.0,86,0.03,,,0.09,meteohub,2013-05-03 14:26:00,
2013-05-03 15:31:00,50.4,46.6,29.81,SSW,202,13.0,27.0,87,0.03,,,0.09,meteohub,2013-05-03 14:31:00,
2013-05-03 15:36:00,50.4,46.9,29.78,SSW,202,15.0,24.0,88,0.03,,,0.09,meteohub,2013-05-03 14:36:00,
2013-05-03 15:41:00,50.5,47.1,29.78,SSW,202,15.0,20.0,88,0.03,,,0.09,meteohub,2013-05-03 14:41:00,
2013-05-03 15:46:00,50.4,46.9,29.78,South,180,17.0,21.0,88,0.04,,,0.09,meteohub,2013-05-03 14:46:00,
2013-05-03 15:51:00,50.5,47.1,29.78,South,180,18.0,21.0,88,0.04,,,0.09,meteohub,2013-05-03 14:51:00,
2013-05-03 15:56:00,50.4,46.9,29.78,South,180,23.0,26.0,88,0.03,,,0.09,meteohub,2013-05-03 14:56:00,
2013-05-03 16:01:00,50.4,46.9,29.78,South,180,15.0,26.0,88,0.03,,,0.09,meteohub,2013-05-03 15:01:00,
2013-05-03 16:06:00,50.5,47.1,29.75,South,180,10.0,26.0,88,0.04,,,0.11,meteohub,2013-05-03 15:06:00,
2013-05-03 16:11:00,50.4,46.9,29.75,SSW,202,16.0,26.0,88,0.03,,,0.11,meteohub,2013-05-03 15:11:00,
2013-05-03 16:16:00,50.4,46.9,29.75,South,180,20.0,24.0,88,0.03,,,0.11,meteohub,2013-05-03 15:16:00,
2013-05-03 16:21:00,50.4,46.9,29.75,South,180,13.0,24.0,88,0.03,,,0.11,meteohub,2013-05-03 15:21:00,
2013-05-03 16:26:00,50.4,47.3,29.75,SSW,202,13.0,23.0,89,0.03,,,0.11,meteohub,2013-05-03 15:26:00,
2013-05-03 16:31:00,50.4,47.3,29.75,SSW,202,18.0,23.0,89,0.03,,,0.11,meteohub,2013-05-03 15:31:00,
2013-05-03 16:37:00,50.4,47.3,29.75,SSW,202,13.0,26.0,89,0.03,,,0.11,meteohub,2013-05-03 15:37:00,
2013-05-03 16:42:00,50.4,47.3,29.75,SSW,202,15.0,26.0,89,0.02,,,0.11,meteohub,2013-05-03 15:42:00,
2013-05-03 16:47:00,50.4,47.3,29.75,South,180,16.0,26.0,89,0.02,,,0.11,meteohub,2013-05-03 15:47:00,
2013-05-03 16:52:00,50.5,47.1,29.75,South,180,24.0,26.0,88,0.02,,,0.11,meteohub,2013-05-03 15:52:00,
2013-05-03 16:57:00,50.5,47.1,29.75,SSW,202,17.0,26.0,88,0.03,,,0.13,meteohub,2013-05-03 15:57:00,
2013-05-03 17:02:00,50.5,47.5,29.75,South,180,17.0,26.0,89,0.02,,,0.13,meteohub,2013-05-03 16:02:00,
2013-05-03 17:07:00,50.7,47.7,29.72,SSW,202,18.0,24.0,89,0.02,,,0.13,meteohub,2013-05-03 16:07:00,
2013-05-03 17:12:00,50.7,47.3,29.72,SSW,202,22.0,31.0,88,0.02,,,0.13,meteohub,2013-05-03 16:12:00,
2013-05-03 17:17:00,50.7,47.3,29.72,SSW,202,11.0,31.0,88,0.02,,,0.13,meteohub,2013-05-03 16:17:00,
2013-05-03 17:22:00,50.7,47.3,29.72,South,180,17.0,31.0,88,0.02,,,0.13,meteohub,2013-05-03 16:22:00,
2013-05-03 17:27:00,50.9,47.1,29.72,SSW,202,27.0,28.0,87,0.01,,,0.13,meteohub,2013-05-03 16:27:00,
2013-05-03 17:32:00,50.9,46.9,29.72,South,180,14.0,31.0,86,0.02,,,0.13,meteohub,2013-05-03 16:32:00,
2013-05-03 17:37:00,50.9,46.9,29.72,South,180,18.0,31.0,86,0.02,,,0.13,meteohub,2013-05-03 16:37:00,
2013-05-03 17:42:00,50.9,46.9,29.72,SSW,202,15.0,31.0,86,0.02,,,0.13,meteohub,2013-05-03 16:42:00,
2013-05-03 17:47:00,50.9,46.9,29.72,SSW,202,20.0,31.0,86,0.02,,,0.13,meteohub,2013-05-03 16:47:00,
2013-05-03 17:52:00,50.9,46.9,29.69,SSW,202,20.0,33.0,86,0.02,,,0.13,meteohub,2013-05-03 16:52:00,
2013-05-03 17:57:00,50.9,47.1,29.69,SSW,202,19.0,33.0,87,0.01,,,0.13,meteohub,2013-05-03 16:57:00,
2013-05-03 18:02:00,50.7,47.3,29.69,South,180,15.0,33.0,88,0.01,,,0.13,meteohub,2013-05-03 17:02:00,
2013-05-03 18:07:00,50.7,47.7,29.69,South,180,16.0,26.0,89,0.01,,,0.13,meteohub,2013-05-03 17:07:00,
2013-05-03 18:13:00,50.7,47.7,29.69,SSW,202,17.0,26.0,89,0.01,,,0.13,meteohub,2013-05-03 17:13:00,
2013-05-03 18:18:00,50.7,47.7,29.69,South,180,17.0,24.0,89,0.01,,,0.13,meteohub,2013-05-03 17:18:00,
2013-05-03 18:23:00,50.7,47.7,29.69,SSW,202,15.0,24.0,89,0.02,,,0.15,meteohub,2013-05-03 17:23:00,
2013-05-03 18:28:00,50.7,47.8,29.69,SSW,202,15.0,23.0,90,0.02,,,0.15,meteohub,2013-05-03 17:28:00,
2013-05-03 18:33:00,50.7,47.8,29.69,SSW,202,18.0,24.0,90,0.01,,,0.15,meteohub,2013-05-03 17:33:00,
2013-05-03 18:38:00,50.7,47.8,29.69,SSW,202,16.0,24.0,90,0.01,,,0.15,meteohub,2013-05-03 17:38:00,
2013-05-03 18:43:00,50.7,47.7,29.69,SSW,202,13.0,26.0,89,0.01,,,0.15,meteohub,2013-05-03 17:43:00,
2013-05-03 18:48:00,50.7,47.7,29.66,SSW,202,13.0,26.0,89,0.02,,,0.15,meteohub,2013-05-03 17:48:00,
2013-05-03 18:53:00,50.7,47.7,29.66,SSW,202,13.0,26.0,89,0.02,,,0.15,meteohub,2013-05-03 17:53:00,
2013-05-03 18:58:00,50.7,47.7,29.66,South,180,13.0,24.0,89,0.02,,,0.15,meteohub,2013-05-03 17:58:00,
2013-05-03 19:03:00,50.9,48.0,29.69,SSW,202,22.0,24.0,90,0.02,,,0.15,meteohub,2013-05-03 18:03:00,
2013-05-03 19:08:00,50.7,47.8,29.69,WSW,248,10.0,22.0,90,0.04,,,0.18,meteohub,2013-05-03 18:08:00,
2013-05-03 19:13:00,50.4,47.8,29.69,WSW,248,11.0,22.0,91,0.06,,,0.20,meteohub,2013-05-03 18:13:00,
2013-05-03 19:18:00,50.2,48.0,29.66,SSW,202,11.0,22.0,92,0.07,,,0.21,meteohub,2013-05-03 18:18:00,
2013-05-03 19:23:00,50.2,48.0,29.66,SW,225,10.0,20.0,92,0.06,,,0.21,meteohub,2013-05-03 18:23:00,
2013-05-03 19:28:00,50.2,48.0,29.66,WSW,248,10.0,20.0,92,0.07,,,0.22,meteohub,2013-05-03 18:28:00,
2013-05-03 19:33:00,50.0,47.8,29.66,WSW,248,5.0,18.0,92,0.08,,,0.23,meteohub,2013-05-03 18:33:00,
2013-05-03 19:38:00,49.8,47.8,29.66,SSE,158,15.0,17.0,93,0.09,,,0.24,meteohub,2013-05-03 18:38:00,
2013-05-03 19:44:00,49.6,47.5,29.66,SSW,202,13.0,17.0,92,0.11,,,0.25,meteohub,2013-05-03 18:44:00,
2013-05-03 19:49:00,49.5,46.9,29.66,SSW,202,13.0,19.0,91,0.09,,,0.25,meteohub,2013-05-03 18:49:00,
2013-05-03 19:54:00,49.5,46.4,29.66,SSW,202,16.0,19.0,89,0.11,,,0.26,meteohub,2013-05-03 18:54:00,
2013-05-03 19:59:00,49.3,46.2,29.66,SW,225,11.0,19.0,89,0.11,,,0.26,meteohub,2013-05-03 18:59:00,
2013-05-03 20:04:00,49.3,46.2,29.66,SSW,202,19.0,19.0,89,0.11,,,0.26,meteohub,2013-05-03 19:04:00,
2013-05-03 20:09:00,49.3,45.9,29.66,SSW,202,13.0,23.0,88,0.08,,,0.26,meteohub,2013-05-03 19:09:00,
2013-05-03 20:14:00,49.3,45.5,29.66,SSW,202,17.0,23.0,87,0.06,,,0.26,meteohub,2013-05-03 19:14:00,
2013-05-03 20:19:00,49.3,45.5,29.66,SSW,202,23.0,23.0,87,0.05,,,0.26,meteohub,2013-05-03 19:19:00,
2013-05-03 20:24:00,49.3,45.3,29.66,SSW,202,15.0,23.0,86,0.05,,,0.26,meteohub,2013-05-03 19:24:00,
2013-05-03 20:29:00,49.3,45.3,29.66,SW,225,23.0,23.0,86,0.04,,,0.26,meteohub,2013-05-03 19:29:00,
2013-05-03 20:34:00,49.3,45.9,29.66,WSW,248,15.0,24.0,88,0.04,,,0.27,meteohub,2013-05-03 19:34:00,
2013-05-03 20:39:00,48.7,45.3,29.66,West,270,15.0,25.0,88,0.05,,,0.28,meteohub,2013-05-03 19:39:00,
2013-05-03 20:44:00,47.7,43.7,29.66,WSW,248,11.0,25.0,86,0.04,,,0.29,meteohub,2013-05-03 19:44:00,
2013-05-03 20:49:00,47.3,43.3,29.66,West,270,13.0,26.0,86,0.04,,,0.29,meteohub,2013-05-03 19:49:00,
2013-05-03 20:54:00,47.1,43.5,29.66,WSW,248,11.0,26.0,87,0.04,,,0.30,meteohub,2013-05-03 19:54:00,
2013-05-03 20:59:00,47.1,44.1,29.66,WSW,248,13.0,26.0,89,0.04,,,0.30,meteohub,2013-05-03 19:59:00,
2013-05-03 21:05:00,46.8,44.1,29.66,WSW,248,14.0,22.0,90,0.04,,,0.30,meteohub,2013-05-03 20:05:00,
2013-05-03 21:10:00,46.6,44.1,29.66,WSW,248,13.0,21.0,91,0.04,,,0.30,meteohub,2013-05-03 20:10:00,
2013-05-03 21:15:00,46.4,43.3,29.66,WSW,248,11.0,23.0,89,0.04,,,0.30,meteohub,2013-05-03 20:15:00,
2013-05-03 21:20:00,46.2,43.2,29.69,WSW,248,19.0,23.0,89,0.04,,,0.30,meteohub,2013-05-03 20:20:00,
2013-05-03 21:25:00,46.2,42.8,29.69,WSW,248,12.0,23.0,88,0.04,,,0.30,meteohub,2013-05-03 20:25:00,
2013-05-03 21:30:00,45.9,41.9,29.69,WSW,248,15.0,23.0,86,0.03,,,0.30,meteohub,2013-05-03 20:30:00,
2013-05-03 21:35:00,45.7,41.4,29.69,WSW,248,16.0,23.0,85,0.01,,,0.30,meteohub,2013-05-03 20:35:00,
2013-05-03 21:40:00,45.5,41.0,29.69,SW,225,18.0,23.0,84,0.01,,,0.30,meteohub,2013-05-03 20:40:00,
2013-05-03 21:45:00,45.3,40.8,29.69,SW,225,17.0,23.0,84,0.01,,,0.30,meteohub,2013-05-03 20:45:00,
2013-05-03 21:50:00,45.1,40.6,29.69,SW,225,19.0,23.0,84,0.00,,,0.30,meteohub,2013-05-03 20:50:00,
2013-05-03 21:55:00,45.1,40.6,29.69,WSW,248,9.0,23.0,84,0.00,,,0.30,meteohub,2013-05-03 20:55:00,
2013-05-03 22:00:00,45.0,40.8,29.69,WSW,248,11.0,23.0,85,0.00,,,0.30,meteohub,2013-05-03 21:00:00,
2013-05-03 22:05:00,44.8,40.6,29.69,WSW,248,20.0,22.0,85,0.00,,,0.30,meteohub,2013-05-03 21:05:00,
2013-05-03 22:10:00,44.8,40.3,29.69,WSW,248,20.0,23.0,84,0.00,,,0.30,meteohub,2013-05-03 21:10:00,
2013-05-03 22:15:00,44.8,40.3,29.69,WSW,248,17.0,30.0,84,0.00,,,0.30,meteohub,2013-05-03 21:15:00,
2013-05-03 22:20:00,44.8,40.3,29.69,WSW,248,14.0,30.0,84,0.00,,,0.30,meteohub,2013-05-03 21:20:00,
2013-05-03 22:25:00,44.6,40.1,29.69,WSW,248,8.0,30.0,84,0.00,,,0.30,meteohub,2013-05-03 21:25:00,
2013-05-03 22:30:00,44.6,40.1,29.69,SW,225,18.0,19.0,84,0.00,,,0.30,meteohub,2013-05-03 21:30:00,
2013-05-03 22:36:00,44.4,39.6,29.72,WSW,248,24.0,24.0,83,0.00,,,0.30,meteohub,2013-05-03 21:36:00,
2013-05-03 22:41:00,44.2,38.8,29.72,West,270,13.0,25.0,81,0.00,,,0.30,meteohub,2013-05-03 21:41:00,
2013-05-03 22:46:00,44.1,38.3,29.72,WSW,248,19.0,25.0,80,0.00,,,0.30,meteohub,2013-05-03 21:46:00,
2013-05-03 22:51:00,44.1,38.7,29.72,WSW,248,18.0,25.0,81,0.00,,,0.30,meteohub,2013-05-03 21:51:00,
2013-05-03 22:56:00,43.9,38.8,29.72,WSW,248,11.0,24.0,82,0.00,,,0.30,meteohub,2013-05-03 21:56:00,
2013-05-03 23:01:00,43.9,38.8,29.72,SW,225,13.0,24.0,82,0.00,,,0.30,meteohub,2013-05-03 22:01:00,
2013-05-03 23:06:00,43.7,38.7,29.72,WSW,248,16.0,24.0,82,0.00,,,0.30,meteohub,2013-05-03 22:06:00,
2013-05-03 23:11:00,43.5,38.1,29.72,WSW,248,19.0,24.0,81,0.00,,,0.30,meteohub,2013-05-03 22:11:00,
2013-05-03 23:16:00,43.5,37.8,29.72,South,180,17.0,25.0,80,0.00,,,0.30,meteohub,2013-05-03 22:16:00,
2013-05-03 23:21:00,43.5,37.4,29.69,WSW,248,15.0,25.0,79,0.00,,,0.30,meteohub,2013-05-03 22:21:00,
2013-05-03 23:26:00,43.3,37.2,29.69,West,270,15.0,25.0,79,0.00,,,0.30,meteohub,2013-05-03 22:26:00,
2013-05-03 23:31:00,42.8,35.8,29.69,WSW,248,24.0,24.0,76,0.00,,,0.30,meteohub,2013-05-03 22:31:00,
2013-05-03 23:36:00,42.6,34.0,29.72,WSW,248,20.0,26.0,71,0.00,,,0.30,meteohub,2013-05-03 22:36:00,
2013-05-03 23:41:00,42.4,33.8,29.72,WSW,248,17.0,26.0,71,0.00,,,0.30,meteohub,2013-05-03 22:41:00,
2013-05-03 23:46:00,42.3,33.6,29.72,West,270,23.0,26.0,71,0.00,,,0.30,meteohub,2013-05-03 22:46:00,
2013-05-03 23:51:00,42.1,33.4,29.72,WSW,248,16.0,25.0,71,0.00,,,0.30,meteohub,2013-05-03 22:51:00,
2013-05-03 23:56:00,42.1,33.4,29.72,WSW,248,13.0,25.0,71,0.00,,,0.30,meteohub,2013-05-03 22:56:00,